User: anonymous   Login
Location: *
(52.2090°N, 4.1550°W)
Time: 05:53:12
(UTC+00:00)
Language:

Meteor 2-6 Rocket - Orbit

View from above orbital plane
View from above orbital plane
View from above satellite
View from above satellite

Ground track
Ground track

The orbit data is extracted from the following two-line orbital elements,

1 11963U 80073B   19264.86490885  .00000068  00000-0  31160-4 0  9997
2 11963  81.2772  43.0832 0074460 257.6954 101.5873 14.09705681  6998
Epoch (UTC): 21 September 2019 20:45:28
Eccentricity: 0.0074460
inclination: 81.2772°
perigee height: 806 km
apogee height: 914 km
right ascension of ascending node: 43.0832°
argument of perigee: 257.6954°
revolutions per day: 14.09705681
mean anomaly at epoch: 101.5873°
orbit number at epoch: 699

The dashed part of the orbit path shows where the satellite is in the earth's shadow,  

DLR